Time,TemperatureF,DewpointF,PressureIn,WindDirection,WindDirectionDegrees,WindSpeedMPH,WindSpeedGustMPH,Humidity,HourlyPrecipIn,Conditions,Clouds,dailyrainin,SoftwareType,DateUTC
2013-09-19 00:00:00,83.1,65.3,29.88,SSE,147,5.0,9.0,55,0.00,,,0.00,Wunderground v.1.15,2013-09-19 05:00:00,
2013-09-19 00:10:00,83.2,65.4,29.88,SSE,157,5.0,5.0,55,0.00,,,0.00,Wunderground v.1.15,2013-09-19 05:10:00,
2013-09-19 00:15:00,83.2,65.9,29.88,South,173,6.0,6.0,56,0.00,,,0.00,Wunderground v.1.15,2013-09-19 05:15:00,
2013-09-19 00:20:00,83.4,66.6,29.88,SSE,167,6.0,8.0,57,0.00,,,0.00,Wunderground v.1.15,2013-09-19 05:20:00,
2013-09-19 00:25:00,83.5,66.7,29.87,SSE,150,6.0,13.0,57,0.00,,,0.00,Wunderground v.1.15,2013-09-19 05:25:00,
2013-09-19 00:35:00,83.9,67.0,29.88,SSE,161,7.0,8.0,57,0.00,,,0.00,Wunderground v.1.15,2013-09-19 05:35:00,
2013-09-19 00:40:00,84.0,67.1,29.87,SSE,156,7.0,7.0,57,0.00,,,0.00,Wunderground v.1.15,2013-09-19 05:40:00,
2013-09-19 00:45:00,84.1,67.2,29.87,SSE,160,7.0,7.0,57,0.00,,,0.00,Wunderground v.1.15,2013-09-19 05:45:00,
2013-09-19 00:50:00,84.2,67.3,29.87,South,171,7.0,7.0,57,0.00,,,0.00,Wunderground v.1.15,2013-09-19 05:50:00,
2013-09-19 00:55:00,84.2,67.3,29.88,SSE,155,7.0,9.0,57,0.00,,,0.00,Wunderground v.1.15,2013-09-19 05:55:00,
2013-09-19 01:00:00,84.2,67.3,29.88,South,178,7.0,7.0,57,0.00,,,0.00,Wunderground v.1.15,2013-09-19 06:00:00,
2013-09-19 01:10:00,84.0,67.6,29.88,SSE,160,6.0,6.0,58,0.00,,,0.00,Wunderground v.1.15,2013-09-19 06:10:00,
2013-09-19 01:20:00,83.8,67.9,29.88,SSE,158,5.0,5.0,59,0.00,,,0.00,Wunderground v.1.15,2013-09-19 06:20:00,
2013-09-19 01:25:00,83.7,68.3,29.88,South,182,4.0,5.0,60,0.00,,,0.00,Wunderground v.1.15,2013-09-19 06:25:00,
2013-09-19 01:30:00,83.6,68.7,29.88,South,188,3.0,3.0,61,0.00,,,0.00,Wunderground v.1.15,2013-09-19 06:30:00,
2013-09-19 01:35:00,83.5,69.1,29.88,South,181,4.0,5.0,62,0.00,,,0.00,Wunderground v.1.15,2013-09-19 06:35:00,
2013-09-19 01:40:00,83.5,69.1,29.88,South,186,4.0,4.0,62,0.00,,,0.00,Wunderground v.1.15,2013-09-19 06:40:00,
2013-09-19 01:50:00,83.5,69.6,29.88,South,184,4.0,4.0,63,0.00,,,0.00,Wunderground v.1.15,2013-09-19 06:50:00,
2013-09-19 01:55:00,83.6,69.7,29.88,South,173,4.0,4.0,63,0.00,,,0.00,Wunderground v.1.15,2013-09-19 06:55:00,
2013-09-19 02:00:00,83.6,70.1,29.88,South,185,3.0,3.0,64,0.00,,,0.00,Wunderground v.1.15,2013-09-19 07:00:00,
2013-09-19 02:10:00,83.5,70.0,29.88,SSE,162,4.0,8.0,64,0.00,,,0.00,Wunderground v.1.15,2013-09-19 07:10:00,
2013-09-19 02:15:00,83.4,69.9,29.88,South,191,5.0,8.0,64,0.00,,,0.00,Wunderground v.1.15,2013-09-19 07:15:00,
2013-09-19 02:20:00,83.4,69.9,29.88,South,171,5.0,5.0,64,0.00,,,0.00,Wunderground v.1.15,2013-09-19 07:20:00,
2013-09-19 02:30:00,83.3,69.8,29.88,SSE,165,4.0,4.0,64,0.00,,,0.00,Wunderground v.1.15,2013-09-19 07:30:00,
2013-09-19 02:35:00,83.2,69.8,29.87,South,186,5.0,5.0,64,0.00,,,0.00,Wunderground v.1.15,2013-09-19 07:35:00,
2013-09-19 02:40:00,83.1,69.7,29.87,SSE,168,6.0,6.0,64,0.00,,,0.00,Wunderground v.1.15,2013-09-19 07:40:00,
2013-09-19 02:45:00,83.0,69.6,29.87,South,169,6.0,6.0,64,0.00,,,0.00,Wunderground v.1.15,2013-09-19 07:45:00,
2013-09-19 02:50:00,82.9,69.9,29.87,SSE,162,4.0,8.0,65,0.00,,,0.00,Wunderground v.1.15,2013-09-19 07:50:00,
2013-09-19 03:00:00,82.5,69.5,29.87,South,184,5.0,5.0,65,0.00,,,0.00,Wunderground v.1.15,2013-09-19 08:00:00,
2013-09-19 03:10:00,82.3,69.8,29.87,SSE,161,3.0,8.0,66,0.00,,,0.00,Wunderground v.1.15,2013-09-19 08:10:00,
2013-09-19 03:20:00,82.0,69.5,29.87,South,170,5.0,12.0,66,0.00,,,0.00,Wunderground v.1.15,2013-09-19 08:20:00,
2013-09-19 03:25:00,81.8,69.3,29.87,SSE,162,5.0,12.0,66,0.00,,,0.00,Wunderground v.1.15,2013-09-19 08:25:00,
2013-09-19 03:30:00,81.7,69.7,29.87,South,184,6.0,6.0,67,0.00,,,0.00,Wunderground v.1.15,2013-09-19 08:30:00,
2013-09-19 03:35:00,81.5,69.5,29.87,SSE,161,6.0,6.0,67,0.00,,,0.00,Wunderground v.1.15,2013-09-19 08:35:00,
2013-09-19 03:45:00,81.3,69.3,29.87,SSE,159,5.0,13.0,67,0.00,,,0.00,Wunderground v.1.15,2013-09-19 08:45:00,
2013-09-19 03:50:00,81.2,69.2,29.87,South,174,5.0,6.0,67,0.00,,,0.00,Wunderground v.1.15,2013-09-19 08:50:00,
2013-09-19 03:55:00,81.1,69.1,29.87,SSE,167,4.0,6.0,67,0.00,,,0.00,Wunderground v.1.15,2013-09-19 08:55:00,
2013-09-19 04:00:00,81.0,69.0,29.87,SSE,165,3.0,3.0,67,0.00,,,0.00,Wunderground v.1.15,2013-09-19 09:00:00,
2013-09-19 04:10:00,80.7,69.2,29.86,SSE,167,1.0,1.0,68,0.00,,,0.00,Wunderground v.1.15,2013-09-19 09:10:00,
2013-09-19 04:15:00,80.5,69.0,29.86,SSE,167,1.0,1.0,68,0.00,,,0.00,Wunderground v.1.15,2013-09-19 09:15:00,
2013-09-19 04:20:00,80.3,68.8,29.87,South,177,1.0,1.0,68,0.00,,,0.00,Wunderground v.1.15,2013-09-19 09:20:00,
2013-09-19 04:25:00,80.2,68.7,29.87,South,180,2.0,2.0,68,0.00,,,0.00,Wunderground v.1.15,2013-09-19 09:25:00,
2013-09-19 04:35:00,80.0,68.9,29.87,SSE,162,2.0,9.0,69,0.00,,,0.00,Wunderground v.1.15,2013-09-19 09:35:00,
2013-09-19 04:40:00,79.8,68.7,29.87,SSE,159,2.0,12.0,69,0.00,,,0.00,Wunderground v.1.15,2013-09-19 09:40:00,
2013-09-19 04:45:00,79.8,68.7,29.87,South,171,2.0,12.0,69,0.00,,,0.00,Wunderground v.1.15,2013-09-19 09:45:00,
2013-09-19 04:55:00,79.6,68.5,29.87,SSE,165,2.0,10.0,69,0.00,,,0.00,Wunderground v.1.15,2013-09-19 09:55:00,
2013-09-19 05:00:00,79.5,68.9,29.87,SSE,164,1.0,1.0,70,0.00,,,0.00,Wunderground v.1.15,2013-09-19 10:00:00,
2013-09-19 05:10:00,79.2,68.6,29.87,South,172,0.0,0.0,70,0.00,,,0.00,Wunderground v.1.15,2013-09-19 10:10:00,
2013-09-19 05:15:00,79.1,68.5,29.87,South,171,1.0,5.0,70,0.00,,,0.00,Wunderground v.1.15,2013-09-19 10:15:00,
2013-09-19 05:20:00,79.0,68.8,29.87,South,171,1.0,1.0,71,0.00,,,0.00,Wunderground v.1.15,2013-09-19 10:20:00,
2013-09-19 05:25:00,78.9,68.7,29.87,South,171,1.0,1.0,71,0.00,,,0.00,Wunderground v.1.15,2013-09-19 10:25:00,
2013-09-19 05:30:00,78.9,68.7,29.87,South,173,0.0,0.0,71,0.00,,,0.00,Wunderground v.1.15,2013-09-19 10:30:00,
2013-09-19 05:35:00,78.8,68.6,29.87,South,174,0.0,0.0,71,0.00,,,0.00,Wunderground v.1.15,2013-09-19 10:35:00,
2013-09-19 05:45:00,78.7,68.5,29.87,South,174,1.0,1.0,71,0.00,,,0.00,Wunderground v.1.15,2013-09-19 10:45:00,
2013-09-19 05:50:00,78.6,68.8,29.87,South,175,1.0,1.0,72,0.00,,,0.00,Wunderground v.1.15,2013-09-19 10:50:00,
2013-09-19 05:55:00,78.5,68.7,29.88,South,174,1.0,5.0,72,0.00,,,0.00,Wunderground v.1.15,2013-09-19 10:55:00,
2013-09-19 06:00:00,78.5,68.7,29.88,South,173,1.0,1.0,72,0.00,,,0.00,Wunderground v.1.15,2013-09-19 11:00:00,
2013-09-19 06:10:00,78.4,68.6,29.88,South,172,1.0,1.0,72,0.00,,,0.00,Wunderground v.1.15,2013-09-19 11:10:00,
2013-09-19 06:15:00,78.3,68.5,29.88,South,172,0.0,1.0,72,0.00,,,0.00,Wunderground v.1.15,2013-09-19 11:15:00,
2013-09-19 06:20:00,78.2,68.4,29.88,South,172,0.0,0.0,72,0.00,,,0.00,Wunderground v.1.15,2013-09-19 11:20:00,
2013-09-19 06:30:00,77.9,68.5,29.89,South,171,0.0,0.0,73,0.00,,,0.00,Wunderground v.1.15,2013-09-19 11:30:00,
2013-09-19 06:35:00,77.8,68.4,29.89,South,171,1.0,1.0,73,0.00,,,0.00,Wunderground v.1.15,2013-09-19 11:35:00,
2013-09-19 06:40:00,77.6,68.7,29.89,SSE,161,1.0,1.0,74,0.00,,,0.00,Wunderground v.1.15,2013-09-19 11:40:00,
2013-09-19 06:45:00,77.5,68.6,29.89,SSE,159,1.0,1.0,74,0.00,,,0.00,Wunderground v.1.15,2013-09-19 11:45:00,
2013-09-19 06:55:00,77.4,68.5,29.89,South,171,2.0,2.0,74,0.00,,,0.00,Wunderground v.1.15,2013-09-19 11:55:00,
2013-09-19 07:00:00,77.4,68.5,29.89,SSE,167,2.0,4.0,74,0.00,,,0.00,Wunderground v.1.15,2013-09-19 12:00:00,
2013-09-19 07:10:00,77.4,68.9,29.90,SSE,162,2.0,2.0,75,0.00,,,0.00,Wunderground v.1.15,2013-09-19 12:10:00,
2013-09-19 07:15:00,77.4,68.9,29.89,SSE,162,2.0,2.0,75,0.00,,,0.00,Wunderground v.1.15,2013-09-19 12:15:00,
2013-09-19 07:25:00,77.3,68.8,29.90,SSE,162,1.0,5.0,75,0.00,,,0.00,Wunderground v.1.15,2013-09-19 12:25:00,
2013-09-19 07:30:00,77.3,68.8,29.90,SSE,160,2.0,2.0,75,0.00,,,0.00,Wunderground v.1.15,2013-09-19 12:30:00,
2013-09-19 07:35:00,77.3,68.8,29.90,SSE,159,2.0,6.0,75,0.00,,,0.00,Wunderground v.1.15,2013-09-19 12:35:00,
2013-09-19 07:40:00,77.3,69.1,29.90,SSE,159,2.0,2.0,76,0.00,,,0.00,Wunderground v.1.15,2013-09-19 12:40:00,
2013-09-19 07:45:00,77.4,69.2,29.91,SSE,159,2.0,2.0,76,0.00,,,0.00,Wunderground v.1.15,2013-09-19 12:45:00,
2013-09-19 07:55:00,77.5,69.7,29.91,SSE,163,2.0,2.0,77,0.00,,,0.00,Wunderground v.1.15,2013-09-19 12:55:00,
2013-09-19 08:00:00,77.6,69.8,29.91,SSE,160,2.0,7.0,77,0.00,,,0.00,Wunderground v.1.15,2013-09-19 13:00:00,
2013-09-19 08:10:00,77.8,70.0,29.91,SSE,163,2.0,7.0,77,0.00,,,0.00,Wunderground v.1.15,2013-09-19 13:10:00,
2013-09-19 08:15:00,77.9,70.1,29.92,SSE,162,2.0,7.0,77,0.00,,,0.00,Wunderground v.1.15,2013-09-19 13:15:00,
2013-09-19 08:20:00,78.0,70.2,29.92,South,169,3.0,6.0,77,0.00,,,0.00,Wunderground v.1.15,2013-09-19 13:20:00,
2013-09-19 08:25:00,78.2,70.4,29.92,South,172,3.0,6.0,77,0.00,,,0.00,Wunderground v.1.15,2013-09-19 13:25:00,
2013-09-19 08:35:00,78.5,70.7,29.92,South,171,1.0,1.0,77,0.00,,,0.00,Wunderground v.1.15,2013-09-19 13:35:00,
2013-09-19 08:40:00,78.7,70.9,29.92,South,171,1.0,1.0,77,0.00,,,0.00,Wunderground v.1.15,2013-09-19 13:40:00,
2013-09-19 08:45:00,78.9,71.1,29.92,South,169,1.0,1.0,77,0.00,,,0.00,Wunderground v.1.15,2013-09-19 13:45:00,
2013-09-19 08:50:00,79.0,71.2,29.92,South,170,1.0,5.0,77,0.00,,,0.00,Wunderground v.1.15,2013-09-19 13:50:00,
2013-09-19 08:55:00,79.1,71.3,29.93,SSE,164,1.0,5.0,77,0.00,,,0.00,Wunderground v.1.15,2013-09-19 13:55:00,
2013-09-19 09:00:00,79.2,71.4,29.92,SSE,154,2.0,2.0,77,0.00,,,0.00,Wunderground v.1.15,2013-09-19 14:00:00,
2013-09-19 09:10:00,79.5,71.7,29.92,SSE,157,0.0,0.0,77,0.00,,,0.00,Wunderground v.1.15,2013-09-19 14:10:00,
2013-09-19 09:15:00,79.7,71.8,29.93,SSE,161,1.0,8.0,77,0.00,,,0.00,Wunderground v.1.15,2013-09-19 14:15:00,
2013-09-19 09:25:00,79.9,72.0,29.93,SSE,163,2.0,2.0,77,0.00,,,0.00,Wunderground v.1.15,2013-09-19 14:25:00,
2013-09-19 09:30:00,80.0,72.5,29.93,South,170,2.0,8.0,78,0.00,,,0.00,Wunderground v.1.15,2013-09-19 14:30:00,
2013-09-19 09:35:00,80.1,72.6,29.93,SSE,161,3.0,8.0,78,0.00,,,0.00,Wunderground v.1.15,2013-09-19 14:35:00,
2013-09-19 09:40:00,80.2,72.7,29.93,SSE,159,2.0,2.0,78,0.00,,,0.00,Wunderground v.1.15,2013-09-19 14:40:00,
2013-09-19 09:50:00,80.6,72.7,29.94,South,169,2.0,6.0,77,0.00,,,0.00,Wunderground v.1.15,2013-09-19 14:50:00,
2013-09-19 09:55:00,80.7,73.2,29.94,SSE,147,4.0,6.0,78,0.00,,,0.00,Wunderground v.1.15,2013-09-19 14:55:00,
2013-09-19 10:00:00,81.0,73.1,29.94,SSE,163,3.0,3.0,77,0.00,,,0.00,Wunderground v.1.15,2013-09-19 15:00:00,
2013-09-19 10:10:00,81.4,73.5,29.94,SSE,165,2.0,7.0,77,0.00,,,0.00,Wunderground v.1.15,2013-09-19 15:10:00,
2013-09-19 10:15:00,81.6,73.3,29.94,SSE,165,2.0,7.0,76,0.00,,,0.00,Wunderground v.1.15,2013-09-19 15:15:00,
2013-09-19 10:20:00,81.8,73.1,29.94,South,175,2.0,2.0,75,0.00,,,0.00,Wunderground v.1.15,2013-09-19 15:20:00,
2013-09-19 10:30:00,82.3,73.2,29.95,SSE,154,3.0,3.0,74,0.00,,,0.00,Wunderground v.1.15,2013-09-19 15:30:00,
2013-09-19 10:35:00,82.5,73.8,29.95,SSE,167,3.0,6.0,75,0.00,,,0.00,Wunderground v.1.15,2013-09-19 15:35:00,
2013-09-19 10:40:00,82.7,73.6,29.95,South,187,3.0,3.0,74,0.00,,,0.00,Wunderground v.1.15,2013-09-19 15:40:00,
2013-09-19 10:45:00,82.6,73.5,29.95,SSW,196,2.0,4.0,74,0.00,,,0.00,Wunderground v.1.15,2013-09-19 15:45:00,
2013-09-19 10:50:00,82.7,73.2,29.94,SSE,167,2.0,2.0,73,0.00,,,0.00,Wunderground v.1.15,2013-09-19 15:50:00,
2013-09-19 11:00:00,82.8,72.8,29.94,South,185,2.0,2.0,72,0.00,,,0.00,Wunderground v.1.15,2013-09-19 16:00:00,
2013-09-19 11:10:00,82.6,73.1,29.95,South,171,3.0,5.0,73,0.00,,,0.00,Wunderground v.1.15,2013-09-19 16:10:00,
2013-09-19 11:20:00,82.8,73.3,29.95,South,177,4.0,4.0,73,0.00,,,0.00,Wunderground v.1.15,2013-09-19 16:20:00,
2013-09-19 11:25:00,82.9,72.5,29.95,South,190,4.0,4.0,71,0.00,,,0.00,Wunderground v.1.15,2013-09-19 16:25:00,
2013-09-19 11:30:00,82.7,72.7,29.95,SSW,207,5.0,5.0,72,0.00,,,0.00,Wunderground v.1.15,2013-09-19 16:30:00,
2013-09-19 11:35:00,82.8,73.3,29.94,South,169,3.0,5.0,73,0.00,,,0.00,Wunderground v.1.15,2013-09-19 16:35:00,
2013-09-19 11:40:00,83.0,73.0,29.94,SSE,167,2.0,7.0,72,0.00,,,0.00,Wunderground v.1.15,2013-09-19 16:40:00,
2013-09-19 11:50:00,83.5,72.7,29.94,South,180,4.0,4.0,70,0.00,,,0.00,Wunderground v.1.15,2013-09-19 16:50:00,
2013-09-19 11:55:00,84.0,73.2,29.94,South,175,2.0,4.0,70,0.00,,,0.00,Wunderground v.1.15,2013-09-19 16:55:00,
2013-09-19 12:00:00,84.2,73.3,29.94,South,176,1.0,1.0,70,0.00,,,0.00,Wunderground v.1.15,2013-09-19 17:00:00,
2013-09-19 12:10:00,84.7,72.5,29.94,SSE,165,2.0,5.0,67,0.00,,,0.00,Wunderground v.1.15,2013-09-19 17:10:00,
2013-09-19 12:15:00,84.7,72.5,29.94,SSW,192,3.0,5.0,67,0.00,,,0.00,Wunderground v.1.15,2013-09-19 17:15:00,
2013-09-19 12:20:00,84.9,72.7,29.93,South,173,3.0,5.0,67,0.00,,,0.00,Wunderground v.1.15,2013-09-19 17:20:00,
2013-09-19 12:25:00,85.2,72.6,29.93,SSE,165,2.0,5.0,66,0.00,,,0.00,Wunderground v.1.15,2013-09-19 17:25:00,
2013-09-19 12:35:00,85.4,72.7,29.93,SSE,155,4.0,5.0,66,0.00,,,0.00,Wunderground v.1.15,2013-09-19 17:35:00,
2013-09-19 12:40:00,85.6,72.5,29.93,SSE,148,3.0,5.0,65,0.00,,,0.00,Wunderground v.1.15,2013-09-19 17:40:00,
2013-09-19 12:45:00,86.0,72.9,29.93,SSE,157,2.0,5.0,65,0.00,,,0.00,Wunderground v.1.15,2013-09-19 17:45:00,
2013-09-19 12:55:00,85.8,72.2,29.92,South,178,2.0,2.0,64,0.00,,,0.00,Wunderground v.1.15,2013-09-19 17:55:00,
2013-09-19 13:00:00,85.9,72.8,29.92,SSE,163,1.0,6.0,65,0.00,,,0.00,Wunderground v.1.15,2013-09-19 18:00:00,
2013-09-19 13:10:00,86.1,71.6,29.92,South,178,2.0,6.0,62,0.00,,,0.00,Wunderground v.1.15,2013-09-19 18:10:00,
2013-09-19 13:15:00,86.3,71.7,29.92,South,182,2.0,6.0,62,0.00,,,0.00,Wunderground v.1.15,2013-09-19 18:15:00,
2013-09-19 13:20:00,86.3,72.2,29.91,SSE,161,2.0,2.0,63,0.00,,,0.00,Wunderground v.1.15,2013-09-19 18:20:00,
2013-09-19 13:25:00,86.6,72.0,29.91,South,172,2.0,2.0,62,0.00,,,0.00,Wunderground v.1.15,2013-09-19 18:25:00,
2013-09-19 13:30:00,86.6,71.5,29.91,SSE,163,2.0,2.0,61,0.00,,,0.00,Wunderground v.1.15,2013-09-19 18:30:00,
2013-09-19 13:40:00,87.0,71.9,29.90,South,171,2.0,2.0,61,0.00,,,0.00,Wunderground v.1.15,2013-09-19 18:40:00,
2013-09-19 13:45:00,87.3,71.7,29.90,South,178,1.0,6.0,60,0.00,,,0.00,Wunderground v.1.15,2013-09-19 18:45:00,
2013-09-19 13:55:00,86.7,71.6,29.89,South,181,1.0,4.0,61,0.00,,,0.00,Wunderground v.1.15,2013-09-19 18:55:00,
2013-09-19 14:00:00,86.6,71.1,29.89,South,182,1.0,1.0,60,0.00,,,0.00,Wunderground v.1.15,2013-09-19 19:00:00,
2013-09-19 14:10:00,86.9,70.8,29.90,South,177,1.0,1.0,59,0.00,,,0.00,Wunderground v.1.15,2013-09-19 19:10:00,
2013-09-19 14:15:00,86.8,70.8,29.89,South,182,1.0,1.0,59,0.00,,,0.00,Wunderground v.1.15,2013-09-19 19:15:00,
2013-09-19 14:20:00,86.8,70.8,29.89,South,179,1.0,1.0,59,0.00,,,0.00,Wunderground v.1.15,2013-09-19 19:20:00,
2013-09-19 14:25:00,86.9,71.3,29.89,South,178,1.0,1.0,60,0.00,,,0.00,Wunderground v.1.15,2013-09-19 19:25:00,
2013-09-19 14:30:00,87.3,71.7,29.88,South,171,1.0,4.0,60,0.00,,,0.00,Wunderground v.1.15,2013-09-19 19:30:00,
2013-09-19 14:40:00,87.0,71.4,29.88,South,185,1.0,1.0,60,0.00,,,0.00,Wunderground v.1.15,2013-09-19 19:40:00,
2013-09-19 14:45:00,87.1,71.5,29.88,South,185,0.0,1.0,60,0.00,,,0.00,Wunderground v.1.15,2013-09-19 19:45:00,
2013-09-19 14:50:00,86.9,70.3,29.87,South,185,0.0,0.0,58,0.00,,,0.00,Wunderground v.1.15,2013-09-19 19:50:00,
2013-09-19 14:55:00,86.8,70.8,29.87,South,185,0.0,0.0,59,0.00,,,0.00,Wunderground v.1.15,2013-09-19 19:55:00,
2013-09-19 15:00:00,87.4,70.8,29.87,South,188,0.0,0.0,58,0.00,,,0.00,Wunderground v.1.15,2013-09-19 20:00:00,
2013-09-19 15:10:00,87.7,70.6,29.86,South,187,0.0,0.0,57,0.00,,,0.00,Wunderground v.1.15,2013-09-19 20:10:00,
2013-09-19 15:15:00,88.0,70.9,29.86,South,188,0.0,0.0,57,0.00,,,0.00,Wunderground v.1.15,2013-09-19 20:15:00,
2013-09-19 15:20:00,87.9,70.8,29.86,South,188,0.0,0.0,57,0.00,,,0.00,Wunderground v.1.15,2013-09-19 20:20:00,
2013-09-19 15:30:00,87.6,70.5,29.85,SSE,162,0.0,0.0,57,0.00,,,0.00,Wunderground v.1.15,2013-09-19 20:30:00,
2013-09-19 15:35:00,88.0,70.9,29.85,SSE,162,0.0,0.0,57,0.00,,,0.00,Wunderground v.1.15,2013-09-19 20:35:00,
2013-09-19 15:40:00,88.3,70.6,29.85,SSE,162,0.0,0.0,56,0.00,,,0.00,Wunderground v.1.15,2013-09-19 20:40:00,
2013-09-19 15:45:00,88.6,70.9,29.85,SSE,162,0.0,0.0,56,0.00,,,0.00,Wunderground v.1.15,2013-09-19 20:45:00,
2013-09-19 15:55:00,89.4,71.1,29.84,SSE,162,0.0,0.0,55,0.00,,,0.00,Wunderground v.1.15,2013-09-19 20:55:00,
2013-09-19 16:00:00,89.7,71.9,29.84,SSE,162,0.0,0.0,56,0.00,,,0.00,Wunderground v.1.15,2013-09-19 21:00:00,
2013-09-19 16:10:00,89.7,70.8,29.84,South,182,1.0,1.0,54,0.00,,,0.00,Wunderground v.1.15,2013-09-19 21:10:00,
2013-09-19 16:15:00,89.6,71.8,29.83,South,183,1.0,1.0,56,0.00,,,0.00,Wunderground v.1.15,2013-09-19 21:15:00,
2013-09-19 16:20:00,90.6,71.7,29.83,South,183,0.0,0.0,54,0.00,,,0.00,Wunderground v.1.15,2013-09-19 21:20:00,
2013-09-19 16:25:00,90.8,70.7,29.83,South,183,0.0,0.0,52,0.00,,,0.00,Wunderground v.1.15,2013-09-19 21:25:00,
2013-09-19 16:35:00,89.5,70.1,29.82,SSE,167,0.0,0.0,53,0.00,,,0.00,Wunderground v.1.15,2013-09-19 21:35:00,
2013-09-19 16:40:00,89.0,70.2,29.82,SSE,167,0.0,0.0,54,0.00,,,0.00,Wunderground v.1.15,2013-09-19 21:40:00,
2013-09-19 16:45:00,88.9,70.6,29.82,SSE,167,0.0,0.0,55,0.00,,,0.00,Wunderground v.1.15,2013-09-19 21:45:00,
2013-09-19 16:50:00,89.3,70.5,29.82,SSE,167,0.0,0.0,54,0.00,,,0.00,Wunderground v.1.15,2013-09-19 21:50:00,
2013-09-19 16:55:00,90.1,70.1,29.81,SSE,167,0.0,0.0,52,0.00,,,0.00,Wunderground v.1.15,2013-09-19 21:55:00,
2013-09-19 17:00:00,90.4,70.4,29.81,SSE,167,0.0,0.0,52,0.00,,,0.00,Wunderground v.1.15,2013-09-19 22:00:00,
2013-09-19 17:10:00,91.2,70.5,29.82,SSE,167,0.0,0.0,51,0.00,,,0.00,Wunderground v.1.15,2013-09-19 22:10:00,
2013-09-19 17:15:00,90.7,70.1,29.82,SSE,167,0.0,0.0,51,0.00,,,0.00,Wunderground v.1.15,2013-09-19 22:15:00,
2013-09-19 17:25:00,90.1,70.1,29.82,SSE,159,0.0,0.0,52,0.00,,,0.00,Wunderground v.1.15,2013-09-19 22:25:00,
2013-09-19 17:30:00,89.8,70.4,29.82,SSE,159,0.0,0.0,53,0.00,,,0.00,Wunderground v.1.15,2013-09-19 22:30:00,
2013-09-19 17:35:00,89.5,70.7,29.82,SSE,155,0.0,0.0,54,0.00,,,0.00,Wunderground v.1.15,2013-09-19 22:35:00,
2013-09-19 17:40:00,89.3,69.9,29.82,ESE,109,0.0,0.0,53,0.00,,,0.00,Wunderground v.1.15,2013-09-19 22:40:00,
2013-09-19 17:45:00,89.1,69.7,29.82,ESE,104,0.0,0.0,53,0.00,,,0.00,Wunderground v.1.15,2013-09-19 22:45:00,
2013-09-19 17:55:00,88.6,69.8,29.82,East,80,0.0,5.0,54,0.00,,,0.00,Wunderground v.1.15,2013-09-19 22:55:00,
2013-09-19 18:00:00,88.4,70.2,29.82,ENE,75,0.0,0.0,55,0.00,,,0.00,Wunderground v.1.15,2013-09-19 23:00:00,
2013-09-19 18:10:00,88.2,69.5,29.82,NE,55,2.0,2.0,54,0.00,,,0.00,Wunderground v.1.15,2013-09-19 23:10:00,
2013-09-19 18:15:00,88.1,69.9,29.82,NE,55,0.0,2.0,55,0.00,,,0.00,Wunderground v.1.15,2013-09-19 23:15:00,
2013-09-19 18:20:00,88.0,70.3,29.82,NE,55,0.0,0.0,56,0.00,,,0.00,Wunderground v.1.15,2013-09-19 23:20:00,
2013-09-19 18:25:00,87.8,70.1,29.82,ENE,58,0.0,0.0,56,0.00,,,0.00,Wunderground v.1.15,2013-09-19 23:25:00,
2013-09-19 18:35:00,87.5,69.9,29.83,ENE,66,0.0,2.0,56,0.00,,,0.00,Wunderground v.1.15,2013-09-19 23:35:00,
2013-09-19 18:40:00,87.3,69.7,29.83,ENE,66,1.0,1.0,56,0.00,,,0.00,Wunderground v.1.15,2013-09-19 23:40:00,
2013-09-19 18:45:00,87.2,70.1,29.82,ENE,66,0.0,1.0,57,0.00,,,0.00,Wunderground v.1.15,2013-09-19 23:45:00,
2013-09-19 18:50:00,87.0,69.9,29.83,ENE,74,0.0,0.0,57,0.00,,,0.00,Wunderground v.1.15,2013-09-19 23:50:00,
2013-09-19 19:00:00,86.5,71.5,29.83,ENE,74,0.0,0.0,61,0.00,,,0.00,Wunderground v.1.15,2013-09-20 00:00:00,
2013-09-19 19:10:00,85.6,72.0,29.83,ENE,76,0.0,0.0,64,0.00,,,0.00,Wunderground v.1.15,2013-09-20 00:10:00,
2013-09-19 19:20:00,84.9,72.3,29.84,ENE,76,0.0,2.0,66,0.00,,,0.00,Wunderground v.1.15,2013-09-20 00:20:00,
2013-09-19 19:25:00,84.6,72.0,29.84,ENE,76,0.0,2.0,66,0.00,,,0.00,Wunderground v.1.15,2013-09-20 00:25:00,
2013-09-19 19:30:00,84.3,72.1,29.84,ENE,76,0.0,0.0,67,0.00,,,0.00,Wunderground v.1.15,2013-09-20 00:30:00,
2013-09-19 19:35:00,84.1,72.0,29.84,ENE,76,0.0,0.0,67,0.00,,,0.00,Wunderground v.1.15,2013-09-20 00:35:00,
2013-09-19 19:40:00,84.0,72.3,29.84,ENE,76,0.0,0.0,68,0.00,,,0.00,Wunderground v.1.15,2013-09-20 00:40:00,
2013-09-19 19:50:00,83.3,72.5,29.85,East,99,6.0,6.0,70,0.00,,,0.00,Wunderground v.1.15,2013-09-20 00:50:00,
2013-09-19 19:55:00,82.3,72.0,29.85,East,98,11.0,11.0,71,0.00,,,0.00,Wunderground v.1.15,2013-09-20 00:55:00,
2013-09-19 20:00:00,81.4,71.5,29.85,East,98,9.0,9.0,72,0.00,,,0.00,Wunderground v.1.15,2013-09-20 01:00:00,
2013-09-19 20:10:00,80.4,72.1,29.85,East,88,5.0,8.0,76,0.00,,,0.00,Wunderground v.1.15,2013-09-20 01:10:00,
2013-09-19 20:15:00,79.8,71.9,29.85,East,94,4.0,8.0,77,0.00,,,0.01,Wunderground v.1.15,2013-09-20 01:15:00,
2013-09-19 20:20:00,79.1,71.6,29.85,East,92,2.0,8.0,78,0.00,,,0.01,Wunderground v.1.15,2013-09-20 01:20:00,
2013-09-19 20:25:00,78.4,71.0,29.86,East,92,1.0,8.0,78,0.00,,,0.01,Wunderground v.1.15,2013-09-20 01:25:00,
2013-09-19 20:35:00,77.7,71.4,29.88,SW,219,1.0,6.0,81,0.35,,,0.04,Wunderground v.1.15,2013-09-20 01:35:00,
2013-09-19 20:40:00,77.3,71.4,29.89,WSW,241,2.0,2.0,82,0.42,,,0.06,Wunderground v.1.15,2013-09-20 01:40:00,
2013-09-19 20:45:00,76.6,71.4,29.90,SW,217,4.0,4.0,84,0.14,,,0.08,Wunderground v.1.15,2013-09-20 01:45:00,
2013-09-19 20:50:00,75.9,71.4,29.90,SW,225,4.0,4.0,86,0.42,,,0.11,Wunderground v.1.15,2013-09-20 01:50:00,
2013-09-19 21:00:00,75.1,71.0,29.90,South,185,1.0,1.0,87,0.23,,,0.19,Wunderground v.1.15,2013-09-20 02:00:00,
2013-09-19 21:10:00,74.1,70.3,29.89,SSW,196,1.0,1.0,88,0.09,,,0.20,Wunderground v.1.15,2013-09-20 02:10:00,
2013-09-19 21:15:00,73.9,70.5,29.89,SSW,196,0.0,1.0,89,0.06,,,0.21,Wunderground v.1.15,2013-09-20 02:15:00,
2013-09-19 21:20:00,73.8,70.4,29.89,SSW,196,0.0,0.0,89,0.06,,,0.21,Wunderground v.1.15,2013-09-20 02:20:00,
2013-09-19 21:25:00,73.6,70.2,29.89,SSW,196,0.0,0.0,89,0.05,,,0.21,Wunderground v.1.15,2013-09-20 02:25:00,
2013-09-19 21:35:00,73.4,70.3,29.89,SSW,196,0.0,0.0,90,0.04,,,0.22,Wunderground v.1.15,2013-09-20 02:35:00,
2013-09-19 21:40:00,73.4,70.3,29.89,SSW,196,0.0,0.0,90,0.09,,,0.23,Wunderground v.1.15,2013-09-20 02:40:00,
2013-09-19 21:45:00,73.4,70.3,29.89,SSW,196,0.0,0.0,90,0.07,,,0.23,Wunderground v.1.15,2013-09-20 02:45:00,
2013-09-19 21:50:00,73.4,70.6,29.89,SSW,196,0.0,0.0,91,0.04,,,0.23,Wunderground v.1.15,2013-09-20 02:50:00,
2013-09-19 22:00:00,73.2,70.4,29.89,SSW,209,0.0,0.0,91,0.00,,,0.24,Wunderground v.1.15,2013-09-20 03:00:00,
2013-09-19 22:10:00,73.3,70.5,29.89,SSW,209,0.0,0.0,91,0.05,,,0.25,Wunderground v.1.15,2013-09-20 03:10:00,
2013-09-19 22:20:00,73.4,70.9,29.89,SSW,209,0.0,0.0,92,0.05,,,0.25,Wunderground v.1.15,2013-09-20 03:20:00,
2013-09-19 22:25:00,73.5,71.0,29.89,SSW,209,0.0,0.0,92,0.04,,,0.25,Wunderground v.1.15,2013-09-20 03:25:00,
2013-09-19 22:30:00,73.5,71.0,29.89,SSW,209,0.0,0.0,92,0.00,,,0.25,Wunderground v.1.15,2013-09-20 03:30:00,
2013-09-19 22:40:00,73.7,71.2,29.89,SSW,209,0.0,0.0,92,0.00,,,0.26,Wunderground v.1.15,2013-09-20 03:40:00,
2013-09-19 22:45:00,73.7,71.2,29.89,SSW,209,0.0,0.0,92,0.00,,,0.26,Wunderground v.1.15,2013-09-20 03:45:00,
2013-09-19 22:50:00,73.5,71.0,29.89,SSW,209,0.0,0.0,92,0.04,,,0.27,Wunderground v.1.15,2013-09-20 03:50:00,
2013-09-19 22:55:00,73.5,71.0,29.89,SE,130,0.0,0.0,92,0.04,,,0.27,Wunderground v.1.15,2013-09-20 03:55:00,
2013-09-19 23:00:00,73.5,71.0,29.89,SE,129,0.0,0.0,92,0.04,,,0.27,Wunderground v.1.15,2013-09-20 04:00:00,
2013-09-19 23:05:00,73.5,71.0,29.89,SE,128,0.0,0.0,92,0.04,,,0.27,Wunderground v.1.15,2013-09-20 04:05:00,
2013-09-19 23:10:00,73.5,71.4,29.88,ESE,111,0.0,2.0,93,0.00,,,0.27,Wunderground v.1.15,2013-09-20 04:10:00,
2013-09-19 23:15:00,73.5,71.4,29.88,ESE,108,0.0,2.0,93,0.00,,,0.27,Wunderground v.1.15,2013-09-20 04:15:00,
2013-09-19 23:20:00,73.5,71.4,29.89,ESE,108,0.0,0.0,93,0.00,,,0.28,Wunderground v.1.15,2013-09-20 04:20:00,
2013-09-19 23:25:00,73.4,70.9,29.88,ESE,108,0.0,0.0,92,0.00,,,0.28,Wunderground v.1.15,2013-09-20 04:25:00,
2013-09-19 23:30:00,73.2,70.7,29.88,ESE,107,0.0,0.0,92,0.07,,,0.29,Wunderground v.1.15,2013-09-20 04:30:00,
2013-09-19 23:35:00,73.1,71.0,29.88,ESE,105,0.0,0.0,93,0.07,,,0.29,Wunderground v.1.15,2013-09-20 04:35:00,
2013-09-19 23:40:00,73.1,71.0,29.88,ESE,105,0.0,0.0,93,0.05,,,0.29,Wunderground v.1.15,2013-09-20 04:40:00,
2013-09-19 23:45:00,73.0,70.9,29.89,ESE,105,0.0,0.0,93,0.00,,,0.29,Wunderground v.1.15,2013-09-20 04:45:00,
2013-09-19 23:50:00,73.0,70.9,29.89,East,86,1.0,1.0,93,0.00,,,0.29,Wunderground v.1.15,2013-09-20 04:50:00,